• Le Poker by Infinite Player


    En France !!!

    Viens jouer au poker dans ton spot

    favori : c'est en live, c'est 100% gratuit

    et c'est super convivial.

    Rejoins la famille Infinite Player ;)

  • Infinite Player

    Résultats

    Consultez vos

    classements

    et statistiques

  • Les soirées Poker Infinite Player

    Dans votre établissement ?

    Devenir

    établissement partenaire

    Que vous soyez un bowling, un bar, un restaurant,

    un escape-game, un hôtel, ou même une salle de billard

    vous pouvez très nettement augmenter votre clientèle de

    semaine en hébergeant facilement nos tournois, contactez-nous !

INFINITE PLAYER :

La seule Ligue 100% gratuite de poker en Suisse depuis 2015, et en France depuis 2020 !!!

Pour participer c’est très simple, connecte-toi à ton espace personnel, choisis le jour où tu veux jouer, inscris-toi, et c'est parti !

Selon ton classement et du nombre de joueurs, tu obtiens des points qui forment une moyenne et ainsi, à chaque fin de saison (4 mois), te donneront accès aux finales, toujours 100% gratuites, regroupant les meilleurs joueurs de la région et avec une superbe dotation !!

Auras-tu l’aplomb ? Seras-tu le prochain champion INFINITE PLAYER en remportant des tickets pour les plus grands tournois d’Europe ?

(Dont les fameux évènements de notre partenaire Winamax : le Winamax Poker Tour, le Winamax Poker Open et le Sismix)

SHUFFLE UP AND DEAL !!!

Dernières nouvelles

Le classement Infinite Player du Q3 2021 dans la zone SUD est disponible.

CLIQUE ICI POUR Y ACCEDER

A jour au 30/12, prochaine mise à jour le 31/12.

Le classement Infinite Player du Q3 2021 en Rhône-Alpes est disponible.

CLIQUE ICI POUR Y ACCEDER

A jour au 30/12, prochaine mise à jour le 31/12.

Tu veux jouer avec nous Online et participer à nos divers championnats ? C'est par ici que ça se passe :

CLIQUE ICI POUR Y ACCEDER

LA SORTIE DU COVID APPROCHE !! On reprend enfin le Poker Live gratuit dans vos établissements favoris après cette longue période sans vous voir. En Juin c'est seulement les week-end (couvre-feu oblige) et dès Juillet retour à la normale. Par contre, le masque reste obligatoire et le 6-max imposé jusqu'à nouvel ordre.

DEPUIS 2015 EN SUISSE, NOUS VOICI ENFIN EN FRANCE !! Jouez au poker dans votre établissement favori : C'est en live, c'est 100% gratuit, et vous vous créez un cercle d'amis.

Nouveaux établissements

8 Avenue de Ternier,
SAINT JULIEN EN GENEVOIS (74160)

22 avenue Alphonse Baudin,
BOURG-EN-BRESSE (01000)

29 avenue Félix Faure,
VALENCE (26000)

Tournois à venir

Ville

Établissement

Jour

Date / Heure de RDV
(start 30' après)

Inscriptions

202201211900 CLERMONT-L'HERAULT (34800) Le Air Soccer 5 Vendredi 21 janvier 19:00 14/24
202201211930 ANNEMASSE (74100) Le Madness Beear (Vendredi) Vendredi 21 janvier 19:30 20/24
202201221100 CHÂTILLON SAINT JEAN (26750) Le M Samedi 22 janvier 11:00 9/24
202201231730 MONTPELLIER (34000) My Beers (Montpellier) Dimanche 23 janvier 17:30 9/24
202201231800 LE THOR (84250) My Beers (Isle sur Sorgue) Dimanche 23 janvier 18:00 8/24
202201231800 AVIGNON (84000) La Scène Dimanche 23 janvier 18:00 2/32
202201231900 ROQUEBRUNE-SUR-ARGENS (83520) La Bonne Etoile Dimanche 23 janvier 19:00 32/32 +10 intéressés
202201241900 BOURG-EN-BRESSE (01000) L'Ardoise (Lundi) Lundi 24 janvier 19:00 9/32
202201241900 TOURNON (73460) Le Sporting Lundi 24 janvier 19:00 3/24
202201241900 MANDELIEU-LA-NAPOULE (06210) Le Lapsuce Lundi 24 janvier 19:00 10/24
202201241900 CHAMBERY (73000) Le Brock Art Lundi 24 janvier 19:00 14/18
202201241900 SILLINGY (74330) L'American Diner Lundi 24 janvier 19:00 9/36
202201241930 THONON-LES-BAINS (74200) La Bodega Lundi 24 janvier 19:30 4/36
202201241930 ANNEMASSE (74100) Le Madness Beear (Lundi) Lundi 24 janvier 19:30 4/24
202201251830 SAINT JULIEN EN GENEVOIS (74160) Le Saint Jus (Mardi) Mardi 25 janvier 18:30 18/18 +2 intéressés
202201251900 SEYNOD (74600) Le Crazy Clock Mardi 25 janvier 19:00 3/24
202201251900 BOURG-EN-BRESSE (01000) Le 1055 Mardi 25 janvier 19:00 7/24
202201251900 NICE (06300) L'Akathor Mardi 25 janvier 19:00 32/32 +1 intéressé
202201251900 GORREVOD (01190) Le Repère Mardi 25 janvier 19:00 5/24
202201251900 RIORGES (42153) Le Bowling de Roanne/Riorges Mardi 25 janvier 19:00 7/24
202201251900 SCIONZIER (74950) Le BobbyBar Mardi 25 janvier 19:00 11/18
202201251900 LE PONT-DE-BEAUVOISIN (73330) Le Beer's Company Mardi 25 janvier 19:00 2/24
202201251900 LAGNIEU (01150) La Grange (Mardi) Mardi 25 janvier 19:00 6/24
202201251930 AIX-EN-PROVENCE (13100) Le Bar BQ Mardi 25 janvier 19:30 1/16
202201261900 ANNEMASSE (74100) Le Little Rock Mercredi 26 janvier 19:00 18/24
202201261900 MONTMELIAN (73800) O'BeeRock Mercredi 26 janvier 19:00 8/32
202201261900 THONON-LES-BAINS (74200) O'CodeBar Mercredi 26 janvier 19:00 1/18
202201261900 ANNECY (74000) Au Bureau (Annecy) Mercredi 26 janvier 19:00 0/16
202201261900 SALON-DE-PROVENCE (13300) La Mezzetta Mercredi 26 janvier 19:00 3/16
202201261900 SALAISE-SUR-SANNE (38150) Le Cargo Mercredi 26 janvier 19:00 6/24
202201261900 HYERES (83400) Le People Mercredi 26 janvier 19:00 2/24
202201261900 VALENCE (26000) Le 12/04 Mercredi 26 janvier 19:00 2/24
202201261900 LAGNIEU (01150) La Grange (Mercredi) Mercredi 26 janvier 19:00 9/24
202201261930 LES ABRETS (38490) Le 927 Mercredi 26 janvier 19:30 0/18
202201261930 CESSY (01170) Le Cadence Café Mercredi 26 janvier 19:30 0/24
202201271900 GRESY-SUR-AIX (73100) L'Envie Jeudi 27 janvier 19:00 9/24
202201271900 ANNECY (74000) Le Saint Germain Jeudi 27 janvier 19:00 2/28
202201271900 THONON-LES-BAINS (74200) Le  Flore Jeudi 27 janvier 19:00 1/32
202201271900 AUBAGNE (13400) Les Enfants Gâtés Jeudi 27 janvier 19:00 1/24
202201281900 CLERMONT-L'HERAULT (34800) Le Air Soccer 5 Vendredi 28 janvier 19:00 1/24
202201281930 ANNEMASSE (74100) Le Madness Beear (Vendredi) Vendredi 28 janvier 19:30 5/24
202201301030 CHÂTILLON SAINT JEAN (26750) Le M Dimanche 30 janvier 10:30 3/24
202201301730 MONTPELLIER (34000) My Beers (Montpellier) Dimanche 30 janvier 17:30 1/24
202201301800 LE THOR (84250) My Beers (Isle sur Sorgue) Dimanche 30 janvier 18:00 3/24
202201301800 AVIGNON (84000) La Scène Dimanche 30 janvier 18:00 3/32
202201301900 ROQUEBRUNE-SUR-ARGENS (83520) La Bonne Etoile Dimanche 30 janvier 19:00 32/32 +2 intéressés
202201311900 TOURNON (73460) Le Sporting Lundi 31 janvier 19:00 2/24
202201311900 SILLINGY (74330) L'American Diner Lundi 31 janvier 19:00 2/36
202201311900 MANDELIEU-LA-NAPOULE (06210) Le Lapsuce Lundi 31 janvier 19:00 4/24
202201311900 CHAMBERY (73000) Le Brock Art Lundi 31 janvier 19:00 1/18
202201311900 BOURG-EN-BRESSE (01000) L'Ardoise (Lundi) Lundi 31 janvier 19:00 4/32
202201311930 THONON-LES-BAINS (74200) La Bodega Lundi 31 janvier 19:30 1/36
202201311930 ANNEMASSE (74100) Le Madness Beear (Lundi) Lundi 31 janvier 19:30 3/24
202202011830 SAINT JULIEN EN GENEVOIS (74160) Le Saint Jus (Mardi) Mardi 01 février 18:30 18/18 +1 intéressé
202202011900 LE PONT-DE-BEAUVOISIN (73330) Le Beer's Company Mardi 01 février 19:00 0/24
202202011900 GORREVOD (01190) Le Repère Mardi 01 février 19:00 4/24
202202011900 SEYNOD (74600) Le Crazy Clock Mardi 01 février 19:00 2/24
202202011900 NICE (06300) L'Akathor Mardi 01 février 19:00 16/32
202202011900 RIORGES (42153) Le Bowling de Roanne/Riorges Mardi 01 février 19:00 1/24
202202011900 SCIONZIER (74950) Le BobbyBar Mardi 01 février 19:00 1/18
202202011900 LAGNIEU (01150) La Grange (Mardi) Mardi 01 février 19:00 5/24
202202011900 VALENCE (26000) Le Speakeasy Mardi 01 février 19:00 7/24
202202011900 BOURG-EN-BRESSE (01000) Le 1055 Mardi 01 février 19:00 2/24
202202011930 AIX-EN-PROVENCE (13100) Le Bar BQ Mardi 01 février 19:30 1/16
202202021900 ANNEMASSE (74100) Le Little Rock Mercredi 02 février 19:00 11/24
202202021900 VALENCE (26000) Le 12/04 Mercredi 02 février 19:00 0/24
202202021900 SALAISE-SUR-SANNE (38150) Le Cargo Mercredi 02 février 19:00 2/24
202202021900 ANNECY (74000) Au Bureau (Annecy) Mercredi 02 février 19:00 0/16
202202021900 THONON-LES-BAINS (74200) O'CodeBar Mercredi 02 février 19:00 1/18
202202021900 SALON-DE-PROVENCE (13300) La Mezzetta Mercredi 02 février 19:00 0/16
202202021900 LAGNIEU (01150) La Grange (Mercredi) Mercredi 02 février 19:00 4/24
202202021900 HYERES (83400) Le People Mercredi 02 février 19:00 0/24
202202021900 MONTMELIAN (73800) O'BeeRock Mercredi 02 février 19:00 5/32
202202021930 LES ABRETS (38490) Le 927 Mercredi 02 février 19:30 0/18
202202021930 CESSY (01170) Le Cadence Café Mercredi 02 février 19:30 0/24
202202031900 BOURG-EN-BRESSE (01000) L'Ardoise (Jeudi) Jeudi 03 février 19:00 2/32
202202031900 AUBAGNE (13400) Les Enfants Gâtés Jeudi 03 février 19:00 1/24
202202031900 GRESY-SUR-AIX (73100) L'Envie Jeudi 03 février 19:00 2/24
202202031900 ANNECY (74000) Le Saint Germain Jeudi 03 février 19:00 1/28
202202031900 THONON-LES-BAINS (74200) Le  Flore Jeudi 03 février 19:00 1/32
202202041900 CLERMONT-L'HERAULT (34800) Le Air Soccer 5 Vendredi 04 février 19:00 1/24
202202041930 ANNEMASSE (74100) Le Madness Beear (Vendredi) Vendredi 04 février 19:30 4/24
202202060930 HYERES (83400) Le People Dimanche 06 février 09:30 FINALE Q3/21 Sud
202202061030 CHÂTILLON SAINT JEAN (26750) Le M Dimanche 06 février 10:30 1/24
202202061730 MONTPELLIER (34000) My Beers (Montpellier) Dimanche 06 février 17:30 1/24
202202061800 AVIGNON (84000) La Scène Dimanche 06 février 18:00 2/32
202202061800 LE THOR (84250) My Beers (Isle sur Sorgue) Dimanche 06 février 18:00 1/24
202202061900 ROQUEBRUNE-SUR-ARGENS (83520) La Bonne Etoile Dimanche 06 février 19:00 22/32
202202071900 MANDELIEU-LA-NAPOULE (06210) Le Lapsuce Lundi 07 février 19:00 2/24
202202071900 CHAMBERY (73000) Le Brock Art Lundi 07 février 19:00 1/18
202202071900 TOURNON (73460) Le Sporting Lundi 07 février 19:00 0/24
202202071900 BOURG-EN-BRESSE (01000) L'Ardoise (Lundi) Lundi 07 février 19:00 1/32
202202071900 SILLINGY (74330) L'American Diner Lundi 07 février 19:00 1/36
202202071930 THONON-LES-BAINS (74200) La Bodega Lundi 07 février 19:30 0/36
202202071930 ANNEMASSE (74100) Le Madness Beear (Lundi) Lundi 07 février 19:30 2/24
202202081830 SAINT JULIEN EN GENEVOIS (74160) Le Saint Jus (Mardi) Mardi 08 février 18:30 4/18
202202081900 SEYNOD (74600) Le Crazy Clock Mardi 08 février 19:00 0/24
202202081900 VALENCE (26000) Le Speakeasy Mardi 08 février 19:00 0/24
202202081900 BOURG-EN-BRESSE (01000) Le 1055 Mardi 08 février 19:00 0/24
202202081900 LAGNIEU (01150) La Grange (Mardi) Mardi 08 février 19:00 0/24
Page sur

Devenir établissement partenaire

INFINITE PLAYER vous propose bien plus qu'une prestationn, un véritable partenariat pour l'animation dans vos bars, restaurants, bowling… grâce à notre concept de poker 100% gratuit et, bien évidemment, 100% légal.

Notre ambition est d’aider nos établissements partenaires à renforcer la vie sociale et développer une communauté de leur lieu en proposant une animation moderne, tendance et régulière !


Une prestation 3 en 1, à moindres coûts !

  • Vous aider à dynamiser une ou plusieurs soirées creuses dans la semaine.

  • Vous apporter une nouvelle clientèle, la fidéliser rapidement et durablement.

  • Accroître votre notoriété et faire parler de votre établissement.


Pour cela, nous vous apportons :


Contactez nous


  • Email : contact@infiniteplayer.fr

Merci de saisir votre nom ou pseudo

Posez nous toutes vos questions

Merci, votre message a été envoyé avec succès.

Echec de l'envoi, veuillez verifier votre adresse mail.

Echec de l'envoi, veuillez verifier votre nom.

Echec de l'envoi, n'avez-vous pas oublié de taper votre message ?

Echec de l'envoi, une erreur est survenue